| time (UTC) | temp C | wind direction | speed KPH | gust KPH | rain 1hr cm | rain 24hr cm | rain mn cm | humidity % | barometer mb |
| 20260904042135 | 27 | 0 | 0.0 | 12.9 | 0.00 | 0.00 | 0.00 | 73 | 1021.8 |
| 20260904041635 | 27 | 290 | 1.6 | 12.9 | 0.00 | 0.00 | 0.00 | 73 | 1021.7 |
| 20260904041135 | 27 | 0 | 0.0 | 11.3 | 0.00 | 0.00 | 0.00 | 73 | 1021.7 |
| 20260904040635 | 27 | 0 | 0.0 | 11.3 | 0.00 | 0.00 | 0.00 | 72 | 1021.7 |
| 20260904040135 | 27 | 0 | 0.0 | 14.5 | 0.00 | 0.00 | 0.00 | 72 | 1021.6 |
| 20260904035635 | 27 | 292 | 1.6 | 14.5 | 0.00 | 0.00 | 0.00 | 72 | 1021.6 |
| 20260904035135 | 27 | 0 | 0.0 | 8.0 | 0.00 | 0.00 | 0.00 | 72 | 1021.6 |
| 20260904034635 | 27 | 296 | 1.6 | 12.9 | 0.00 | 0.00 | 0.00 | 71 | 1021.6 |
| 20260904034135 | 27 | 296 | 1.6 | 12.9 | 0.00 | 0.00 | 0.00 | 71 | 1021.6 |
| 20260904033635 | 27 | 0 | 0.0 | 8.0 | 0.00 | 0.00 | 0.00 | 71 | 1021.6 |
| 20260904033135 | 27 | 0 | 0.0 | 8.0 | 0.00 | 0.00 | 0.00 | 70 | 1021.6 |
| 20260904032636 | 28 | 0 | 0.0 | 12.9 | 0.00 | 0.00 | 0.00 | 70 | 1021.6 |
| 20260904032135 | 28 | 0 | 0.0 | 12.9 | 0.00 | 0.00 | 0.00 | 70 | 1021.5 |
| 20260904031635 | 28 | 302 | 1.6 | 8.0 | 0.00 | 0.00 | 0.00 | 69 | 1021.7 |
| 20260904031135 | 28 | 0 | 0.0 | 8.0 | 0.00 | 0.00 | 0.00 | 69 | 1021.7 |
| 20260904030635 | 28 | 0 | 0.0 | 8.0 | 0.00 | 0.00 | 0.00 | 69 | 1021.6 |
| 20260904030135 | 28 | 0 | 0.0 | 8.0 | 0.00 | 0.00 | 0.00 | 68 | 1021.7 |
| 20260904025636 | 28 | 0 | 0.0 | 4.8 | 0.00 | 0.00 | 0.00 | 68 | 1021.7 |
| 20260904025135 | 28 | 0 | 0.0 | 4.8 | 0.00 | 0.00 | 0.00 | 68 | 1021.8 |
| 20260904024636 | 28 | 0 | 0.0 | 11.3 | 0.00 | 0.00 | 0.00 | 67 | 1021.8 |
| 20260904024135 | 28 | 0 | 0.0 | 11.3 | 0.00 | 0.00 | 0.00 | 67 | 1021.8 |
| 20260904023635 | 28 | 0 | 0.0 | 4.8 | 0.00 | 0.00 | 0.00 | 66 | 1021.8 |
| 20260904023137 | 28 | 0 | 0.0 | 4.8 | 0.00 | 0.00 | 0.00 | 65 | 1021.8 |
| 20260904022635 | 28 | 0 | 0.0 | 8.0 | 0.00 | 0.00 | 0.00 | 64 | 1021.9 |
| 20260904022135 | 28 | 0 | 0.0 | 8.0 | 0.00 | 0.00 | 0.00 | 64 | 1021.9 |
| 20260904021635 | 28 | 0 | 0.0 | 4.8 | 0.00 | 0.00 | 0.00 | 64 | 1022.0 |
| 20260904021135 | 28 | 0 | 0.0 | 4.8 | 0.00 | 0.00 | 0.00 | 63 | 1021.9 |
| 20260904020635 | 28 | 0 | 0.0 | 4.8 | 0.00 | 0.00 | 0.00 | 62 | 1021.8 |
| 20260904020135 | 28 | 0 | 0.0 | 4.8 | 0.00 | 0.00 | 0.00 | 61 | 1021.7 |
| 20260904015635 | 28 | 0 | 0.0 | 0.0 | 0.00 | 0.00 | 0.00 | 61 | 1021.7 |
| 20260904015135 | 28 | 0 | 0.0 | 11.3 | 0.00 | 0.00 | 0.00 | 60 | 1021.8 |
| 20260904014635 | 28 | 0 | 0.0 | 11.3 | 0.00 | 0.00 | 0.00 | 59 | 1021.8 |
| 20260904014135 | 28 | 0 | 0.0 | 4.8 | 0.00 | 0.00 | 0.00 | 59 | 1021.8 |
| 20260904013635 | 28 | 0 | 0.0 | 4.8 | 0.00 | 0.00 | 0.00 | 58 | 1021.8 |
| 20260904013135 | 28 | 0 | 0.0 | 6.4 | 0.00 | 0.00 | 0.00 | 58 | 1021.7 |
| 20260904012635 | 28 | 0 | 0.0 | 6.4 | 0.00 | 0.00 | 0.00 | 58 | 1021.6 |
| 20260904012102 | 28 | 0 | 0.0 | 6.4 | 0.00 | 0.00 | 0.00 | 59 | 1021.6 |
| 20260904011602 | 28 | 0 | 0.0 | 6.4 | 0.00 | 0.00 | 0.00 | 61 | 1021.5 |
| 20260904011105 | 28 | 0 | 0.0 | 3.2 | 0.00 | 0.00 | 0.00 | 61 | 1021.5 |
| 20260904010602 | 28 | 0 | 0.0 | 4.8 | 0.00 | 0.00 | 0.00 | 63 | 1021.4 |
| 20260904005602 | 28 | 0 | 0.0 | 0.0 | 0.00 | 0.00 | 0.00 | 62 | 1021.4 |
| 20260904005102 | 28 | 0 | 0.0 | 4.8 | 0.00 | 0.00 | 0.00 | 63 | 1021.4 |
| 20260904004602 | 28 | 0 | 0.0 | 4.8 | 0.00 | 0.00 | 0.00 | 63 | 1021.4 |
| 20260904004102 | 28 | 0 | 0.0 | 4.8 | 0.00 | 0.00 | 0.00 | 63 | 1021.2 |
| 20260904003603 | 28 | 0 | 0.0 | 6.4 | 0.00 | 0.00 | 0.00 | 63 | 1021.1 |
| 20260904003102 | 28 | 0 | 0.0 | 6.4 | 0.00 | 0.00 | 0.00 | 63 | 1021.0 |
| 20260904002602 | 28 | 0 | 0.0 | 6.4 | 0.00 | 0.00 | 0.00 | 62 | 1020.9 |
| 20260904002102 | 28 | 0 | 0.0 | 3.2 | 0.00 | 0.00 | 0.00 | 63 | 1020.8 |
| 20260904001602 | 28 | 0 | 0.0 | 1.6 | 0.00 | 0.00 | 0.00 | 62 | 1020.7 |
| 20260904001104 | 28 | 0 | 0.0 | 1.6 | 0.00 | 0.00 | 0.00 | 63 | 1020.6 |
| 20260904000602 | 28 | 0 | 0.0 | 6.4 | 0.00 | 0.00 | 0.00 | 63 | 1020.6 |
| 20260903235602 | 29 | 0 | 0.0 | 4.8 | 0.00 | 0.00 | 0.00 | 63 | 1020.7 |
| 20260903235102 | 29 | 0 | 0.0 | 4.8 | 0.00 | 0.00 | 0.00 | 63 | 1020.5 |
| 20260903234602 | 29 | 0 | 0.0 | 1.6 | 0.00 | 0.00 | 0.00 | 63 | 1020.5 |
| 20260903234102 | 29 | 0 | 0.0 | 11.3 | 0.00 | 0.00 | 0.00 | 62 | 1020.3 |
| 20260903233602 | 29 | 0 | 0.0 | 11.3 | 0.00 | 0.00 | 0.00 | 62 | 1020.3 |
| 20260903233103 | 30 | 0 | 0.0 | 8.0 | 0.00 | 0.00 | 0.00 | 62 | 1020.4 |
| 20260903232602 | 30 | 0 | 0.0 | 6.4 | 0.00 | 0.00 | 0.00 | 62 | 1020.5 |
| 20260903232102 | 30 | 0 | 0.0 | 8.0 | 0.00 | 0.00 | 0.00 | 62 | 1020.4 |
| 20260903231602 | 30 | 0 | 0.0 | 8.0 | 0.00 | 0.00 | 0.00 | 62 | 1020.4 |
| 20260903231102 | 30 | 0 | 0.0 | 8.0 | 0.00 | 0.00 | 0.00 | 61 | 1020.4 |
| 20260903230604 | 30 | 0 | 0.0 | 8.0 | 0.00 | 0.00 | 0.00 | 61 | 1020.4 |
| 20260903225604 | 30 | 0 | 0.0 | 3.2 | 0.00 | 0.00 | 0.00 | 59 | 1020.2 |
| 20260903225102 | 30 | 0 | 0.0 | 0.0 | 0.00 | 0.00 | 0.00 | 58 | 1020.2 |
| 20260903224602 | 31 | 0 | 0.0 | 3.2 | 0.00 | 0.00 | 0.00 | 59 | 1020.3 |
| 20260903224102 | 31 | 0 | 0.0 | 3.2 | 0.00 | 0.00 | 0.00 | 58 | 1020.3 |
| 20260903223602 | 31 | 0 | 0.0 | 4.8 | 0.00 | 0.00 | 0.00 | 57 | 1020.3 |
| 20260903223104 | 31 | 0 | 0.0 | 4.8 | 0.00 | 0.00 | 0.00 | 57 | 1020.2 |
| 20260903222602 | 31 | 0 | 0.0 | 4.8 | 0.00 | 0.00 | 0.00 | 56 | 1020.2 |
| 20260903222103 | 31 | 0 | 0.0 | 6.4 | 0.00 | 0.00 | 0.00 | 56 | 1020.2 |
| 20260903221602 | 31 | 0 | 0.0 | 6.4 | 0.00 | 0.00 | 0.00 | 57 | 1020.3 |
| 20260903221103 | 31 | 302 | 1.6 | 6.4 | 0.00 | 0.00 | 0.00 | 56 | 1020.3 |
| 20260903220602 | 31 | 0 | 0.0 | 1.6 | 0.00 | 0.00 | 0.00 | 56 | 1020.3 |
| 20260903215603 | 31 | 0 | 0.0 | 6.4 | 0.00 | 0.00 | 0.00 | 55 | 1020.3 |
| 20260903215102 | 31 | 0 | 0.0 | 4.8 | 0.00 | 0.00 | 0.00 | 57 | 1020.4 |
| 20260903214602 | 32 | 0 | 0.0 | 6.4 | 0.00 | 0.00 | 0.00 | 55 | 1020.4 |
| 20260903214102 | 32 | 0 | 0.0 | 11.3 | 0.00 | 0.00 | 0.00 | 56 | 1020.3 |
| 20260903213602 | 32 | 0 | 0.0 | 11.3 | 0.00 | 0.00 | 0.00 | 56 | 1020.4 |
| 20260903213102 | 32 | 0 | 0.0 | 8.0 | 0.00 | 0.00 | 0.00 | 54 | 1020.3 |
| 20260903212605 | 32 | 0 | 0.0 | 6.4 | 0.00 | 0.00 | 0.00 | 56 | 1020.4 |
| 20260903212104 | 32 | 0 | 0.0 | 6.4 | 0.00 | 0.00 | 0.00 | 55 | 1020.5 |
| 20260903211602 | 32 | 302 | 1.6 | 8.0 | 0.00 | 0.00 | 0.00 | 54 | 1020.4 |
| 20260903211102 | 33 | 302 | 1.6 | 8.0 | 0.00 | 0.00 | 0.00 | 54 | 1020.5 |
| 20260903210602 | 33 | 0 | 0.0 | 8.0 | 0.00 | 0.00 | 0.00 | 55 | 1020.6 |
| 20260903205602 | 33 | 0 | 0.0 | 11.3 | 0.00 | 0.00 | 0.00 | 56 | 1020.6 |
| 20260903205102 | 32 | 0 | 0.0 | 8.0 | 0.00 | 0.00 | 0.00 | 53 | 1020.6 |
| 20260903204602 | 32 | 302 | 1.6 | 12.9 | 0.00 | 0.00 | 0.00 | 54 | 1020.7 |
| 20260903204102 | 32 | 0 | 0.0 | 12.9 | 0.00 | 0.00 | 0.00 | 55 | 1020.6 |
| 20260903203603 | 33 | 302 | 3.2 | 11.3 | 0.00 | 0.00 | 0.00 | 53 | 1020.8 |
| 20260903203103 | 33 | 0 | 0.0 | 14.5 | 0.00 | 0.00 | 0.00 | 53 | 1020.8 |
| 20260903202602 | 33 | 302 | 3.2 | 14.5 | 0.00 | 0.00 | 0.00 | 54 | 1020.8 |
| 20260903202102 | 33 | 0 | 0.0 | 12.9 | 0.00 | 0.00 | 0.00 | 54 | 1020.9 |
| 20260903201602 | 33 | 307 | 1.6 | 12.9 | 0.00 | 0.00 | 0.00 | 54 | 1021.0 |
| 20260903201104 | 33 | 0 | 0.0 | 12.9 | 0.00 | 0.00 | 0.00 | 55 | 1021.0 |
| 20260903200602 | 33 | 309 | 3.2 | 12.9 | 0.00 | 0.00 | 0.00 | 52 | 1021.1 |
| 20260903195602 | 33 | 0 | 0.0 | 8.0 | 0.00 | 0.00 | 0.00 | 54 | 1021.2 |
| 20260903195102 | 33 | 0 | 0.0 | 9.7 | 0.00 | 0.00 | 0.00 | 54 | 1021.2 |
| 20260903194602 | 33 | 316 | 1.6 | 12.9 | 0.00 | 0.00 | 0.00 | 53 | 1021.1 |
| 20260903194102 | 33 | 317 | 1.6 | 12.9 | 0.00 | 0.00 | 0.00 | 54 | 1021.2 |
| 20260903193602 | 33 | 325 | 1.6 | 12.9 | 0.00 | 0.00 | 0.00 | 53 | 1021.2 |
| 20260903193104 | 33 | 0 | 0.0 | 8.0 | 0.00 | 0.00 | 0.00 | 53 | 1021.4 |
| 20260903192602 | 33 | 327 | 1.6 | 8.0 | 0.00 | 0.00 | 0.00 | 52 | 1021.4 |
| 20260903192104 | 33 | 0 | 0.0 | 8.0 | 0.00 | 0.00 | 0.00 | 52 | 1021.4 |
| 20260903191602 | 33 | 327 | 1.6 | 8.0 | 0.00 | 0.00 | 0.00 | 52 | 1021.5 |
| 20260903190745 | 33 | 328 | 6.4 | 16.1 | 0.00 | 0.00 | 0.00 | 54 | 1021.5 |
| 20260903190245 | 32 | 328 | 4.8 | 12.9 | 0.00 | 0.00 | 0.00 | 55 | 1021.6 |
| 20260903185745 | 32 | 328 | 3.2 | 9.7 | 0.00 | 0.00 | 0.00 | 55 | 1021.6 |
| 20260903185245 | 33 | 328 | 1.6 | 9.7 | 0.00 | 0.00 | 0.00 | 53 | 1021.7 |
| 20260903184745 | 33 | 328 | 1.6 | 9.7 | 0.00 | 0.00 | 0.00 | 51 | 1021.7 |
| 20260903184245 | 33 | 328 | 3.2 | 9.7 | 0.00 | 0.00 | 0.00 | 53 | 1021.7 |
| 20260903183746 | 33 | 328 | 3.2 | 14.5 | 0.00 | 0.00 | 0.00 | 53 | 1021.9 |
| 20260903183245 | 33 | 328 | 6.4 | 14.5 | 0.00 | 0.00 | 0.00 | 53 | 1021.9 |
| 20260903182745 | 33 | 328 | 1.6 | 12.9 | 0.00 | 0.00 | 0.00 | 55 | 1022.0 |
| 20260903182245 | 33 | 328 | 1.6 | 12.9 | 0.00 | 0.00 | 0.00 | 56 | 1022.0 |
| 20260903181713 | 33 | 328 | 1.6 | 9.7 | 0.00 | 0.00 | 0.00 | 54 | 1022.0 |
| 20260903181156 | 32 | 0 | 0.0 | 4.8 | 0.00 | 0.00 | 0.00 | 57 | 1022.1 |
| 20260903180656 | 32 | 0 | 0.0 | 8.0 | 0.00 | 0.00 | 0.00 | 55 | 1022.2 |
| 20260903180157 | 32 | 328 | 3.2 | 9.7 | 0.00 | 0.00 | 0.00 | 55 | 1022.2 |
| 20260903175656 | 32 | 328 | 3.2 | 9.7 | 0.00 | 0.00 | 0.00 | 57 | 1022.2 |
| 20260903175157 | 32 | 328 | 1.6 | 8.0 | 0.00 | 0.00 | 0.00 | 59 | 1022.3 |
| 20260903174656 | 32 | 0 | 0.0 | 3.2 | 0.00 | 0.00 | 0.00 | 59 | 1022.3 |
| 20260903174158 | 32 | 0 | 0.0 | 3.2 | 0.00 | 0.00 | 0.00 | 60 | 1022.4 |
| 20260903173656 | 31 | 0 | 0.0 | 3.2 | 0.00 | 0.00 | 0.00 | 61 | 1022.5 |
| 20260903173155 | 31 | 0 | 0.0 | 3.2 | 0.00 | 0.00 | 0.00 | 60 | 1022.4 |
| 20260903172656 | 31 | 0 | 0.0 | 1.6 | 0.00 | 0.00 | 0.00 | 61 | 1022.5 |
| 20260903172156 | 31 | 0 | 0.0 | 3.2 | 0.00 | 0.00 | 0.00 | 61 | 1022.6 |
| 20260903171656 | 31 | 0 | 0.0 | 3.2 | 0.00 | 0.00 | 0.00 | 60 | 1022.6 |
| 20260903171157 | 31 | 0 | 0.0 | 1.6 | 0.00 | 0.00 | 0.00 | 62 | 1022.7 |
| 20260903170657 | 31 | 0 | 0.0 | 1.6 | 0.00 | 0.00 | 0.00 | 61 | 1022.7 |
| 20260903170201 | 31 | 0 | 0.0 | 3.2 | 0.00 | 0.00 | 0.00 | 61 | 1022.7 |
| 20260903165656 | 31 | 0 | 0.0 | 3.2 | 0.00 | 0.00 | 0.00 | 62 | 1022.8 |
| 20260903165157 | 31 | 0 | 0.0 | 3.2 | 0.00 | 0.00 | 0.00 | 61 | 1022.9 |
| 20260903164656 | 31 | 0 | 0.0 | 0.0 | 0.00 | 0.00 | 0.00 | 59 | 1023.0 |
| 20260903164159 | 31 | 0 | 0.0 | 0.0 | 0.00 | 0.00 | 0.00 | 59 | 1023.0 |
| 20260903163656 | 31 | 0 | 0.0 | 0.0 | 0.00 | 0.00 | 0.00 | 59 | 1023.0 |
| 20260903163156 | 31 | 0 | 0.0 | 0.0 | 0.00 | 0.00 | 0.00 | 57 | 1023.0 |
| 20260903162656 | 31 | 0 | 0.0 | 1.6 | 0.00 | 0.00 | 0.00 | 59 | 1023.0 |
| 20260903162158 | 31 | 0 | 0.0 | 3.2 | 0.00 | 0.00 | 0.00 | 59 | 1023.1 |
| 20260903161728 | 31 | 0 | 0.0 | 6.4 | 0.00 | 0.00 | 0.00 | 58 | 1023.1 |
| 20260903161656 | 31 | 0 | 0.0 | 6.4 | 0.00 | 0.00 | 0.00 | 58 | 1023.1 |
| 20260903161252 | 31 | 328 | 1.6 | 6.4 | 0.00 | 0.00 | 0.00 | 58 | 1023.1 |
| 20260903161159 | 31 | 328 | 1.6 | 6.4 | 0.00 | 0.00 | 0.00 | 58 | 1023.1 |
| 20260903160738 | 31 | 0 | 0.0 | 4.8 | 0.00 | 0.00 | 0.00 | 59 | 1023.2 |
| 20260903160656 | 31 | 0 | 0.0 | 4.8 | 0.00 | 0.00 | 0.00 | 59 | 1023.2 |
| 20260903160409 | 31 | 0 | 0.0 | 4.8 | 0.00 | 0.00 | 0.00 | 60 | 1023.2 |
| 20260903160156 | 31 | 0 | 0.0 | 4.8 | 0.00 | 0.00 | 0.00 | 60 | 1023.2 |
| 20260903155819 | 30 | 0 | 0.0 | 4.8 | 0.00 | 0.00 | 0.00 | 60 | 1023.2 |
| 20260903155656 | 30 | 0 | 0.0 | 4.8 | 0.00 | 0.00 | 0.00 | 60 | 1023.2 |
| 20260903155248 | 30 | 0 | 0.0 | 4.8 | 0.00 | 0.00 | 0.00 | 62 | 1023.2 |
| 20260903155158 | 30 | 0 | 0.0 | 4.8 | 0.00 | 0.00 | 0.00 | 62 | 1023.2 |
| 20260903154728 | 30 | 0 | 0.0 | 8.0 | 0.00 | 0.00 | 0.00 | 62 | 1023.3 |
| 20260903154656 | 30 | 0 | 0.0 | 8.0 | 0.00 | 0.00 | 0.00 | 62 | 1023.3 |
| 20260903154157 | 30 | 328 | 1.6 | 8.0 | 0.00 | 0.00 | 0.00 | 61 | 1023.4 |
| 20260903153656 | 31 | 0 | 0.0 | 3.2 | 0.00 | 0.00 | 0.00 | 60 | 1023.4 |
| 20260903153348 | 30 | 0 | 0.0 | 0.0 | 0.00 | 0.00 | 0.00 | 60 | 1023.3 |
| 20260903153344 | 30 | 0 | 0.0 | 4.8 | 0.00 | 0.00 | 0.00 | 63 | 1023.4 |
| 20260903153202 | 30 | 0 | 0.0 | 0.0 | 0.00 | 0.00 | 0.00 | 60 | 1023.3 |
| 20260903152657 | 30 | 0 | 0.0 | 4.8 | 0.00 | 0.00 | 0.00 | 63 | 1023.4 |
| 20260903152156 | 30 | 0 | 0.0 | 4.8 | 0.00 | 0.00 | 0.00 | 62 | 1023.5 |
| 20260903151656 | 30 | 0 | 0.0 | 6.4 | 0.00 | 0.00 | 0.00 | 62 | 1023.4 |
| 20260903151156 | 30 | 0 | 0.0 | 6.4 | 0.00 | 0.00 | 0.00 | 63 | 1023.4 |
| 20260903150734 | 30 | 0 | 0.0 | 4.8 | 0.00 | 0.00 | 0.00 | 62 | 1023.4 |
| 20260903150656 | 30 | 0 | 0.0 | 4.8 | 0.00 | 0.00 | 0.00 | 62 | 1023.4 |
| 20260903150159 | 30 | 0 | 0.0 | 3.2 | 0.00 | 0.00 | 0.00 | 61 | 1023.5 |
| 20260903145735 | 30 | 0 | 0.0 | 3.2 | 0.00 | 0.00 | 0.00 | 61 | 1023.4 |
| 20260903145657 | 30 | 0 | 0.0 | 3.2 | 0.00 | 0.00 | 0.00 | 61 | 1023.4 |
| 20260903145156 | 30 | 0 | 0.0 | 3.2 | 0.00 | 0.00 | 0.00 | 60 | 1023.4 |
| 20260903144656 | 30 | 0 | 0.0 | 0.0 | 0.00 | 0.00 | 0.00 | 60 | 1023.4 |
| 20260903144159 | 30 | 0 | 0.0 | 0.0 | 0.00 | 0.00 | 0.00 | 63 | 1023.4 |
| 20260903143656 | 30 | 0 | 0.0 | 0.0 | 0.00 | 0.00 | 0.00 | 61 | 1023.4 |
| 20260903143157 | 30 | 0 | 0.0 | 0.0 | 0.00 | 0.00 | 0.00 | 63 | 1023.4 |
| 20260903142657 | 30 | 0 | 0.0 | 1.6 | 0.00 | 0.00 | 0.00 | 62 | 1023.3 |
| 20260903142200 | 30 | 0 | 0.0 | 1.6 | 0.00 | 0.00 | 0.00 | 63 | 1023.3 |
| 20260903141656 | 30 | 0 | 0.0 | 0.0 | 0.00 | 0.00 | 0.00 | 63 | 1023.3 |
| 20260903141200 | 30 | 0 | 0.0 | 0.0 | 0.00 | 0.00 | 0.00 | 63 | 1023.3 |
| 20260903140656 | 29 | 0 | 0.0 | 0.0 | 0.00 | 0.00 | 0.00 | 63 | 1023.3 |
| 20260903140157 | 30 | 0 | 0.0 | 3.2 | 0.00 | 0.00 | 0.00 | 62 | 1023.3 |
| 20260903135657 | 29 | 0 | 0.0 | 3.2 | 0.00 | 0.00 | 0.00 | 62 | 1023.3 |
| 20260903135051 | 27 | 0 | 0.0 | 0.0 | 0.00 | 0.00 | 0.00 | 69 | 1023.1 |
| 20260903135003 | 29 | 0 | 0.0 | 0.0 | 0.00 | 0.00 | 0.00 | 63 | 1023.1 |
| 20260903134503 | 28 | 0 | 0.0 | 0.0 | 0.00 | 0.00 | 0.00 | 65 | 1023.2 |
| 20260903134005 | 28 | 0 | 0.0 | 0.0 | 0.00 | 0.00 | 0.00 | 67 | 1023.1 |
| 20260903133503 | 28 | 0 | 0.0 | 0.0 | 0.00 | 0.00 | 0.00 | 67 | 1023.1 |
| 20260903133003 | 28 | 0 | 0.0 | 0.0 | 0.00 | 0.00 | 0.00 | 67 | 1023.1 |
| 20260903132503 | 28 | 0 | 0.0 | 0.0 | 0.00 | 0.00 | 0.00 | 66 | 1023.1 |
| 20260903132003 | 27 | 0 | 0.0 | 0.0 | 0.00 | 0.00 | 0.00 | 68 | 1023.0 |
| 20260903131503 | 27 | 0 | 0.0 | 0.0 | 0.00 | 0.00 | 0.00 | 69 | 1023.1 |
| 20260903131003 | 27 | 0 | 0.0 | 0.0 | 0.00 | 0.00 | 0.00 | 70 | 1023.1 |
| 20260903130503 | 27 | 0 | 0.0 | 0.0 | 0.00 | 0.00 | 0.00 | 70 | 1023.2 |
| 20260903130004 | 27 | 0 | 0.0 | 3.2 | 0.00 | 0.00 | 0.00 | 71 | 1023.3 |
| 20260903125505 | 27 | 0 | 0.0 | 3.2 | 0.00 | 0.00 | 0.00 | 70 | 1023.2 |
| 20260903125003 | 26 | 0 | 0.0 | 3.2 | 0.00 | 0.00 | 0.00 | 73 | 1023.3 |
| 20260903124503 | 26 | 0 | 0.0 | 0.0 | 0.00 | 0.00 | 0.00 | 73 | 1023.2 |
| 20260903124003 | 26 | 0 | 0.0 | 0.0 | 0.00 | 0.00 | 0.00 | 73 | 1023.2 |
| 20260903123506 | 26 | 0 | 0.0 | 6.4 | 0.00 | 0.00 | 0.00 | 73 | 1023.1 |
| 20260903123014 | 26 | 328 | 1.6 | 6.4 | 0.00 | 0.00 | 0.00 | 74 | 1023.1 |
| 20260903122503 | 26 | 0 | 0.0 | 6.4 | 0.00 | 0.00 | 0.00 | 75 | 1023.0 |
| 20260903122003 | 26 | 0 | 0.0 | 4.8 | 0.00 | 0.00 | 0.00 | 74 | 1023.0 |
| 20260903121503 | 26 | 0 | 0.0 | 0.0 | 0.00 | 0.00 | 0.00 | 74 | 1023.0 |
| 20260903121052 | 26 | 0 | 0.0 | 4.8 | 0.00 | 0.00 | 0.00 | 74 | 1023.0 |
| 20260903121003 | 26 | 0 | 0.0 | 4.8 | 0.00 | 0.00 | 0.00 | 74 | 1023.0 |
| 20260903120503 | 26 | 0 | 0.0 | 4.8 | 0.00 | 0.00 | 0.00 | 74 | 1023.0 |
| 20260903120003 | 26 | 0 | 0.0 | 0.0 | 0.00 | 0.00 | 0.00 | 75 | 1022.9 |
| 20260903115503 | 25 | 0 | 0.0 | 0.0 | 0.00 | 0.00 | 0.00 | 75 | 1022.9 |
| 20260903115004 | 25 | 0 | 0.0 | 4.8 | 0.00 | 0.00 | 0.00 | 75 | 1022.9 |
| 20260903114503 | 25 | 0 | 0.0 | 6.4 | 0.00 | 0.00 | 0.00 | 76 | 1022.8 |
| 20260903114003 | 25 | 328 | 3.2 | 6.4 | 0.00 | 0.00 | 0.00 | 75 | 1022.7 |
| 20260903113424 | 25 | 328 | 3.2 | 8.0 | 0.00 | 0.00 | 0.00 | 75 | 1022.6 |
| 20260903112851 | 25 | 328 | 3.2 | 6.4 | 0.00 | 0.00 | 0.00 | 75 | 1022.6 |
| 20260903112131 | 25 | 0 | 0.0 | 0.0 | 0.00 | 0.00 | 0.00 | 74 | 1022.6 |
| 20260903111629 | 25 | 0 | 0.0 | 0.0 | 0.00 | 0.00 | 0.00 | 74 | 1022.5 |
| 20260903111130 | 25 | 0 | 0.0 | 4.8 | 0.00 | 0.00 | 0.00 | 74 | 1022.5 |
| 20260903110629 | 25 | 0 | 0.0 | 6.4 | 0.00 | 0.00 | 0.00 | 74 | 1022.3 |
| 20260903110131 | 25 | 328 | 3.2 | 6.4 | 0.00 | 0.00 | 0.00 | 74 | 1022.2 |
| 20260903105629 | 25 | 328 | 3.2 | 6.4 | 0.00 | 0.00 | 0.00 | 74 | 1022.2 |
| 20260903105128 | 25 | 328 | 1.6 | 6.4 | 0.00 | 0.00 | 0.00 | 74 | 1022.2 |
| 20260903104631 | 26 | 0 | 0.0 | 6.4 | 0.00 | 0.00 | 0.00 | 74 | 1022.1 |
| 20260903104132 | 26 | 328 | 3.2 | 6.4 | 0.00 | 0.00 | 0.00 | 74 | 1022.0 |
| 20260903103631 | 26 | 328 | 1.6 | 6.4 | 0.00 | 0.00 | 0.00 | 74 | 1022.0 |
| 20260903103129 | 26 | 328 | 1.6 | 4.8 | 0.00 | 0.00 | 0.00 | 74 | 1022.0 |
| 20260903102629 | 25 | 328 | 3.2 | 4.8 | 0.00 | 0.00 | 0.00 | 75 | 1022.0 |
| 20260903102132 | 25 | 328 | 1.6 | 6.4 | 0.00 | 0.00 | 0.00 | 75 | 1021.9 |
| 20260903101630 | 25 | 328 | 3.2 | 6.4 | 0.00 | 0.00 | 0.00 | 74 | 1021.9 |
| 20260903101130 | 25 | 328 | 3.2 | 6.4 | 0.00 | 0.00 | 0.00 | 75 | 1022.0 |
| 20260903100630 | 25 | 328 | 3.2 | 8.0 | 0.00 | 0.00 | 0.00 | 76 | 1022.1 |
| 20260903100128 | 25 | 328 | 4.8 | 9.7 | 0.00 | 0.00 | 0.00 | 77 | 1022.1 |
| 20260903095630 | 25 | 328 | 4.8 | 12.9 | 0.00 | 0.00 | 0.00 | 77 | 1022.0 |
| 20260903095129 | 25 | 328 | 4.8 | 12.9 | 0.00 | 0.00 | 0.00 | 77 | 1022.0 |
| 20260903094632 | 25 | 328 | 3.2 | 8.0 | 0.00 | 0.00 | 0.00 | 76 | 1022.1 |
| 20260903094130 | 25 | 328 | 1.6 | 9.7 | 0.00 | 0.00 | 0.00 | 75 | 1022.1 |
| 20260903093629 | 25 | 328 | 4.8 | 9.7 | 0.00 | 0.00 | 0.00 | 74 | 1022.0 |
| 20260903093136 | 25 | 328 | 4.8 | 8.0 | 0.00 | 0.00 | 0.00 | 73 | 1022.1 |
| 20260903092630 | 26 | 0 | 0.0 | 12.9 | 0.00 | 0.00 | 0.00 | 72 | 1022.1 |
| 20260903092128 | 26 | 328 | 1.6 | 12.9 | 0.00 | 0.00 | 0.00 | 71 | 1022.1 |
| 20260903091629 | 26 | 328 | 4.8 | 8.0 | 0.00 | 0.00 | 0.00 | 71 | 1022.0 |
| 20260903091129 | 26 | 328 | 3.2 | 8.0 | 0.00 | 0.00 | 0.00 | 70 | 1022.0 |
| 20260903090630 | 26 | 328 | 3.2 | 8.0 | 0.00 | 0.00 | 0.00 | 69 | 1022.0 |
| 20260903090130 | 26 | 328 | 4.8 | 8.0 | 0.00 | 0.00 | 0.00 | 69 | 1022.0 |
| 20260903085630 | 26 | 328 | 3.2 | 4.8 | 0.00 | 0.00 | 0.00 | 69 | 1022.0 |
| 20260903085129 | 26 | 328 | 3.2 | 4.8 | 0.00 | 0.00 | 0.00 | 69 | 1021.9 |
| 20260903084859 | 26 | 328 | 3.2 | 6.4 | 0.00 | 0.00 | 0.00 | 68 | 1021.9 |
| 20260903084630 | 26 | 328 | 3.2 | 8.0 | 0.00 | 0.00 | 0.00 | 69 | 1021.9 |
| 20260903084128 | 26 | 328 | 3.2 | 8.0 | 0.00 | 0.00 | 0.00 | 69 | 1021.9 |
| 20260903083628 | 26 | 328 | 3.2 | 6.4 | 0.00 | 0.00 | 0.00 | 69 | 1021.9 |
| 20260903083131 | 26 | 328 | 3.2 | 6.4 | 0.00 | 0.00 | 0.00 | 68 | 1021.9 |
| 20260903082628 | 26 | 328 | 3.2 | 8.0 | 0.00 | 0.00 | 0.00 | 68 | 1022.0 |
| 20260903082129 | 27 | 328 | 3.2 | 8.0 | 0.00 | 0.00 | 0.00 | 67 | 1022.0 |
| 20260903081631 | 27 | 328 | 4.8 | 8.0 | 0.00 | 0.00 | 0.00 | 67 | 1021.9 |
| 20260903081129 | 27 | 328 | 3.2 | 8.0 | 0.00 | 0.00 | 0.00 | 67 | 1021.9 |
| 20260903080630 | 27 | 328 | 3.2 | 6.4 | 0.00 | 0.00 | 0.00 | 68 | 1021.9 |
| 20260903080130 | 27 | 328 | 1.6 | 4.8 | 0.00 | 0.00 | 0.00 | 68 | 1021.9 |
| 20260903075628 | 27 | 0 | 0.0 | 4.8 | 0.00 | 0.00 | 0.00 | 68 | 1021.9 |
| 20260903075131 | 27 | 0 | 0.0 | 8.0 | 0.00 | 0.00 | 0.00 | 67 | 1021.9 |
| 20260903074630 | 27 | 328 | 3.2 | 8.0 | 0.00 | 0.00 | 0.00 | 67 | 1020.8 |
| 20260903074128 | 27 | 328 | 3.2 | 8.0 | 0.00 | 0.00 | 0.00 | 68 | 1020.8 |
| 20260903073629 | 27 | 328 | 3.2 | 9.7 | 0.00 | 0.00 | 0.00 | 68 | 1020.8 |
| 20260903073130 | 27 | 328 | 4.8 | 9.7 | 0.00 | 0.00 | 0.00 | 68 | 1020.8 |
| 20260903072629 | 27 | 328 | 4.8 | 8.0 | 0.00 | 0.00 | 0.00 | 68 | 1020.8 |
| 20260903072130 | 27 | 328 | 3.2 | 6.4 | 0.00 | 0.00 | 0.00 | 68 | 1020.7 |
| 20260903071630 | 27 | 328 | 3.2 | 6.4 | 0.00 | 0.00 | 0.00 | 68 | 1020.7 |
| 20260903071129 | 27 | 328 | 1.6 | 4.8 | 0.00 | 0.00 | 0.00 | 68 | 1020.6 |
| 20260903070630 | 27 | 0 | 0.0 | 4.8 | 0.00 | 0.00 | 0.00 | 68 | 1020.7 |
| 20260903070130 | 27 | 0 | 0.0 | 4.8 | 0.00 | 0.00 | 0.00 | 68 | 1020.7 |
| 20260903065504 | 27 | 0 | 0.0 | 4.8 | 0.00 | 0.00 | 0.00 | 68 | 1020.8 |
| 20260903064350 | 27 | 328 | 3.2 | 9.7 | 0.00 | 0.00 | 0.00 | 67 | 1020.7 |
| 20260903063850 | 27 | 328 | 3.2 | 8.0 | 0.00 | 0.00 | 0.00 | 65 | 1020.8 |
| 20260903063347 | 27 | 328 | 3.2 | 8.0 | 0.00 | 0.00 | 0.00 | 65 | 1020.9 |
| 20260903062846 | 27 | 328 | 4.8 | 8.0 | 0.00 | 0.00 | 0.00 | 67 | 1020.9 |
| 20260903062347 | 27 | 328 | 3.2 | 8.0 | 0.00 | 0.00 | 0.00 | 68 | 1020.9 |
| 20260903061847 | 27 | 328 | 3.2 | 8.0 | 0.00 | 0.00 | 0.00 | 68 | 1020.9 |
| 20260903061348 | 27 | 328 | 4.8 | 8.0 | 0.00 | 0.00 | 0.00 | 69 | 1020.9 |
| 20260903060848 | 27 | 328 | 3.2 | 8.0 | 0.00 | 0.00 | 0.00 | 69 | 1021.0 |
| 20260903060347 | 27 | 328 | 3.2 | 9.7 | 0.00 | 0.00 | 0.00 | 69 | 1021.0 |
| 20260903055849 | 27 | 328 | 4.8 | 9.7 | 0.00 | 0.00 | 0.00 | 69 | 1021.0 |
| 20260903055354 | 27 | 328 | 6.4 | 9.7 | 0.00 | 0.00 | 0.00 | 68 | 1020.9 |
| 20260903054848 | 27 | 328 | 6.4 | 9.7 | 0.00 | 0.00 | 0.00 | 67 | 1021.1 |
| 20260903054347 | 27 | 328 | 4.8 | 9.7 | 0.00 | 0.00 | 0.00 | 67 | 1021.0 |
| 20260903053846 | 27 | 328 | 4.8 | 9.7 | 0.00 | 0.00 | 0.00 | 67 | 1021.0 |
| 20260903053349 | 27 | 328 | 4.8 | 9.7 | 0.00 | 0.00 | 0.00 | 67 | 1021.2 |
| 20260903052847 | 27 | 328 | 4.8 | 9.7 | 0.00 | 0.00 | 0.00 | 67 | 1021.1 |
| 20260903052346 | 27 | 328 | 4.8 | 9.7 | 0.00 | 0.00 | 0.00 | 66 | 1021.2 |
| 20260903051847 | 27 | 328 | 4.8 | 9.7 | 0.00 | 0.00 | 0.00 | 66 | 1021.1 |
| 20260903051348 | 27 | 328 | 4.8 | 12.9 | 0.00 | 0.00 | 0.00 | 65 | 1021.1 |
| 20260903050849 | 27 | 328 | 6.4 | 14.5 | 0.00 | 0.00 | 0.00 | 65 | 1021.0 |
| 20260903050348 | 27 | 328 | 6.4 | 14.5 | 0.00 | 0.00 | 0.00 | 67 | 1021.0 |
| 20260903045507 | 27 | 328 | 6.4 | 12.9 | 0.00 | 0.00 | 0.00 | 68 | 1021.0 |
| 20260903045007 | 27 | 328 | 6.4 | 14.5 | 0.00 | 0.00 | 0.00 | 67 | 1021.0 |
| 20260903044507 | 27 | 328 | 6.4 | 14.5 | 0.00 | 0.00 | 0.00 | 67 | 1021.1 |
| 20260903044007 | 27 | 328 | 6.4 | 16.1 | 0.00 | 0.00 | 0.00 | 66 | 1021.2 |
| 20260903043507 | 27 | 328 | 6.4 | 16.1 | 0.00 | 0.00 | 0.00 | 65 | 1021.1 |
| 20260903043007 | 28 | 328 | 6.4 | 9.7 | 0.00 | 0.00 | 0.00 | 63 | 1021.1 |